Orbital Elements at Epoch 2459000.5 (2020-May-31.0) TDB
Reference: JPL 26 (heliocentric ecliptic J2000)
Element | Value | Uncertainty (1-sigma) | Units |
e | .1441547300038377 | 4.137e-08 | |
a | 3.044269639400158 | 1.8182e-08 | au |
q | 2.605423771473548 | 1.2642e-07 | au |
i | 9.915237034645495 | 4.5107e-06 | deg |
node | 300.0091922280835 | 2.4539e-05 | deg |
peri | 87.09918520431835 | 2.8733e-05 | deg |
M | 115.7627780884092 | 1.511e-05 | deg |
tp | 2458376.636551832352 (2018-Sep-15.13655183) | 8.0628e-05 | TDB |
period | 1940.095469796267 5.31 | 1.7381e-05 4.759e-08 | d yr |
n | .1855578787768647 | 1.6624e-09 | deg/d |
Q | 3.483115507326769 | 2.0803e-08 | au |
|
| | Orbit Determination Parameters
Additional Information
|